Location: Unspecified
(22.6800°N, 112.2000°E)
Time: 06:54:16
(UTC+08:00)

X-37B - Pass Details

Date: 22 June 2021
Orbit: 383 x 392 km, 45.0° (Epoch: 01 July)

Event Time Altitude Azimuth Distance (km) Brightness Sun altitude
Rises 21:42:10 0° 273° (W) 2,246 5.1 -27.9°
Reaches altitude 10° 21:45:45 10° 316° (NW) 1,394 4.3 -28.5°
Maximum altitude 21:46:25 11° 328° (NNW) 1,365 4.2 -28.6°
Drops below altitude 10° 21:47:06 10° 341° (NNW) 1,394 4.2 -28.7°
Enters shadow 21:48:43 - 5° (N) 1,669 4.3 -29.0°
